| time (UTC) | temp F | wind direction | speed MPH | gust MPH | rain 1hr in | rain 24hr in | rain mn in | humidity % | barometer mb |
| 20260506144548 | 72 | 153 | 0.0 | 3.0 | 0.00 | 0.00 | 0.00 | 97 | 1011.5 |
| 20260506143036 | 72 | 0 | 0.0 | 5.0 | 0.00 | 0.00 | 0.00 | 97 | 1011.5 |
| 20260506141535 | 72 | 25 | 0.0 | 4.0 | 0.00 | 0.00 | 0.00 | 97 | 1011.3 |
| 20260506140043 | 72 | 0 | 0.0 | 2.0 | 0.00 | 0.00 | 0.00 | 97 | 1011.2 |
| 20260506134537 | 71 | 161 | 0.0 | 4.0 | 0.00 | 0.00 | 0.00 | 97 | 1010.6 |
| 20260506133044 | 71 | 155 | 2.0 | 9.0 | 0.00 | 0.00 | 0.00 | 97 | 1009.8 |
| 20260506131542 | 71 | 165 | 1.0 | 5.0 | 0.00 | 0.00 | 0.00 | 97 | 1009.6 |
| 20260506130037 | 71 | 175 | 2.0 | 6.0 | 0.00 | 0.00 | 0.00 | 97 | 1009.7 |
| 20260506124537 | 71 | 129 | 3.0 | 7.0 | 0.00 | 0.00 | 0.00 | 97 | 1009.5 |
| 20260506123034 | 71 | 136 | 3.0 | 5.0 | 0.00 | 0.00 | 0.00 | 97 | 1009.3 |
| 20260506121536 | 71 | 157 | 2.0 | 7.0 | 0.00 | 0.00 | 0.00 | 97 | 1009.1 |
| 20260506120042 | 71 | 157 | 2.0 | 5.0 | 0.00 | 0.00 | 0.00 | 96 | 1009.2 |
| 20260506114534 | 71 | 182 | 3.0 | 7.0 | 0.00 | 0.00 | 0.00 | 97 | 1009.0 |
| 20260506113046 | 71 | 148 | 2.0 | 6.0 | 0.00 | 0.00 | 0.00 | 97 | 1009.3 |
| 20260506111535 | 71 | 151 | 2.0 | 7.0 | 0.00 | 0.00 | 0.00 | 96 | 1009.4 |
| 20260506110036 | 72 | 145 | 1.0 | 9.0 | 0.00 | 0.00 | 0.00 | 96 | 1009.4 |
| 20260506104537 | 72 | 161 | 4.0 | 10.0 | 0.00 | 0.00 | 0.00 | 96 | 1009.2 |
| 20260506103036 | 72 | 142 | 3.0 | 8.0 | 0.00 | 0.00 | 0.00 | 96 | 1009.4 |
| 20260506101544 | 72 | 148 | 4.0 | 11.0 | 0.00 | 0.00 | 0.00 | 96 | 1009.3 |
| 20260506100037 | 72 | 155 | 5.0 | 16.0 | 0.00 | 0.00 | 0.00 | 96 | 1009.2 |
| 20260506094537 | 72 | 161 | 5.0 | 12.0 | 0.00 | 0.00 | 0.00 | 96 | 1009.2 |
| 20260506093034 | 72 | 150 | 4.0 | 10.0 | 0.00 | 0.00 | 0.00 | 96 | 1009.1 |
| 20260506091534 | 72 | 136 | 4.0 | 13.0 | 0.00 | 0.00 | 0.00 | 96 | 1009.0 |
| 20260506090035 | 72 | 161 | 5.0 | 12.0 | 0.00 | 0.00 | 0.00 | 96 | 1008.9 |
| 20260506084540 | 72 | 158 | 5.0 | 9.0 | 0.00 | 0.00 | 0.00 | 95 | 1008.6 |
| 20260506083039 | 72 | 148 | 5.0 | 12.0 | 0.00 | 0.00 | 0.00 | 95 | 1008.7 |
| 20260506081537 | 72 | 148 | 4.0 | 11.0 | 0.00 | 0.00 | 0.00 | 95 | 1008.5 |
| 20260506073035 | 73 | 169 | 7.0 | 17.0 | 0.00 | 0.00 | 0.00 | 93 | 1008.8 |
| 20260506071541 | 73 | 146 | 5.0 | 10.0 | 0.00 | 0.00 | 0.00 | 93 | 1009.1 |
| 20260506061534 | 74 | 134 | 4.0 | 11.0 | 0.00 | 0.00 | 0.00 | 92 | 1009.5 |
| 20260506044536 | 70 | 0 | 0.0 | 0.0 | 0.00 | 0.00 | 0.00 | 95 | 1009.3 |
| 20260506043036 | 69 | 264 | 0.0 | 3.0 | 0.00 | 0.00 | 0.00 | 94 | 1009.3 |
| 20260506041535 | 69 | 0 | 0.0 | 0.0 | 0.00 | 0.00 | 0.00 | 93 | 1009.1 |
| 20260506040040 | 69 | 0 | 0.0 | 0.0 | 0.00 | 0.00 | 0.00 | 93 | 1009.0 |
| 20260506034535 | 69 | 0 | 0.0 | 0.0 | 0.00 | 0.00 | 0.00 | 92 | 1008.9 |
| 20260506033040 | 70 | 0 | 0.0 | 0.0 | 0.00 | 0.00 | 0.00 | 91 | 1008.8 |
| 20260506031535 | 71 | 0 | 0.0 | 0.0 | 0.00 | 0.00 | 0.00 | 91 | 1008.7 |
| 20260506030033 | 72 | 0 | 0.0 | 0.0 | 0.00 | 0.00 | 0.00 | 91 | 1008.6 |
| 20260506024535 | 71 | 0 | 0.0 | 3.0 | 0.00 | 0.00 | 0.00 | 91 | 1008.3 |
| 20260506023048 | 71 | 0 | 0.0 | 0.0 | 0.00 | 0.00 | 0.00 | 90 | 1008.2 |
| 20260506021536 | 72 | 0 | 0.0 | 0.0 | 0.00 | 0.00 | 0.00 | 89 | 1007.9 |
| 20260506020034 | 74 | 0 | 0.0 | 0.0 | 0.00 | 0.00 | 0.00 | 87 | 1007.6 |
| 20260506014544 | 76 | 0 | 0.0 | 0.0 | 0.00 | 0.00 | 0.00 | 84 | 1007.5 |
| 20260506013037 | 77 | 0 | 0.0 | 2.0 | 0.00 | 0.00 | 0.00 | 81 | 1007.3 |
| 20260506011533 | 78 | 0 | 0.0 | 3.0 | 0.00 | 0.00 | 0.00 | 78 | 1007.0 |
| 20260506010048 | 80 | 175 | 1.0 | 4.0 | 0.00 | 0.00 | 0.00 | 77 | 1006.8 |
| 20260506004537 | 80 | 141 | 3.0 | 6.0 | 0.00 | 0.00 | 0.00 | 75 | 1006.9 |
| 20260506003033 | 81 | 162 | 3.0 | 9.0 | 0.00 | 0.00 | 0.00 | 73 | 1007.2 |
| 20260506001539 | 82 | 155 | 2.0 | 7.0 | 0.00 | 0.00 | 0.00 | 74 | 1007.0 |
| 20260506000033 | 82 | 161 | 4.0 | 9.0 | 0.00 | 0.00 | 0.00 | 72 | 1007.0 |
| 20260505234555 | 83 | 130 | 4.0 | 9.0 | 0.00 | 0.00 | 0.00 | 69 | 1007.0 |
| 20260505233040 | 83 | 171 | 4.0 | 8.0 | 0.00 | 0.00 | 0.00 | 69 | 1006.9 |
| 20260505231535 | 84 | 151 | 4.0 | 9.0 | 0.00 | 0.00 | 0.00 | 68 | 1006.8 |
| 20260505230032 | 83 | 169 | 3.0 | 9.0 | 0.00 | 0.00 | 0.00 | 66 | 1006.8 |
| 20260505224535 | 83 | 199 | 3.0 | 10.0 | 0.00 | 0.00 | 0.00 | 66 | 1007.0 |
| 20260505223035 | 84 | 217 | 3.0 | 10.0 | 0.00 | 0.00 | 0.00 | 67 | 1006.9 |
| 20260505221535 | 83 | 186 | 3.0 | 11.0 | 0.00 | 0.00 | 0.00 | 68 | 1007.0 |
| 20260505220040 | 83 | 171 | 4.0 | 11.0 | 0.00 | 0.00 | 0.00 | 67 | 1007.0 |
| 20260505214558 | 83 | 197 | 6.0 | 11.0 | 0.00 | 0.00 | 0.00 | 68 | 1007.1 |
| 20260505213036 | 83 | 131 | 4.0 | 13.0 | 0.00 | 0.00 | 0.00 | 68 | 1007.3 |
| 20260505211532 | 83 | 154 | 7.0 | 12.0 | 0.00 | 0.00 | 0.00 | 68 | 1007.2 |
| 20260505210031 | 84 | 105 | 5.0 | 12.0 | 0.00 | 0.00 | 0.00 | 68 | 1007.3 |
| 20260505204537 | 83 | 142 | 7.0 | 16.0 | 0.00 | 0.00 | 0.00 | 69 | 1007.6 |
| 20260505203043 | 83 | 130 | 8.0 | 17.0 | 0.00 | 0.00 | 0.00 | 68 | 1007.8 |
| 20260505201538 | 83 | 175 | 7.0 | 12.0 | 0.00 | 0.00 | 0.00 | 71 | 1007.8 |
| 20260505200052 | 82 | 150 | 4.0 | 12.0 | 0.00 | 0.00 | 0.00 | 71 | 1008.1 |
| 20260505194546 | 81 | 215 | 5.0 | 12.0 | 0.00 | 0.00 | 0.00 | 73 | 1008.1 |
| 20260505193042 | 81 | 148 | 7.0 | 12.0 | 0.00 | 0.00 | 0.00 | 72 | 1008.2 |
| 20260505191540 | 80 | 153 | 6.0 | 10.0 | 0.00 | 0.00 | 0.00 | 74 | 1008.6 |
| 20260505190038 | 80 | 115 | 6.0 | 11.0 | 0.00 | 0.00 | 0.00 | 74 | 1008.9 |
| 20260505184535 | 79 | 125 | 5.0 | 12.0 | 0.00 | 0.00 | 0.00 | 77 | 1009.1 |
| 20260505183039 | 78 | 188 | 5.0 | 11.0 | 0.00 | 0.00 | 0.00 | 77 | 1009.4 |
| 20260505181540 | 77 | 132 | 4.0 | 10.0 | 0.00 | 0.00 | 0.00 | 78 | 1009.6 |
| 20260505180059 | 76 | 180 | 5.0 | 10.0 | 0.00 | 0.00 | 0.00 | 79 | 1009.5 |
| 20260505174555 | 75 | 166 | 4.0 | 9.0 | 0.00 | 0.00 | 0.00 | 82 | 1009.7 |
| 20260505173042 | 74 | 192 | 4.0 | 12.0 | 0.00 | 0.00 | 0.00 | 83 | 1009.9 |
| 20260505171532 | 73 | 192 | 5.0 | 9.0 | 0.00 | 0.00 | 0.00 | 85 | 1010.2 |
| 20260505170034 | 72 | 157 | 5.0 | 9.0 | 0.00 | 0.00 | 0.00 | 87 | 1009.9 |
| 20260505164534 | 72 | 164 | 6.0 | 10.0 | 0.00 | 0.00 | 0.00 | 88 | 1009.8 |
| 20260505163035 | 72 | 199 | 3.0 | 9.0 | 0.00 | 0.00 | 0.00 | 89 | 1009.7 |
| 20260505161537 | 70 | 205 | 4.0 | 11.0 | 0.00 | 0.00 | 0.00 | 91 | 1009.7 |
| 20260505153032 | 69 | 150 | 4.0 | 9.0 | 0.00 | 0.00 | 0.00 | 94 | 1009.8 |
| 20260505151534 | 68 | 156 | 5.0 | 11.0 | 0.00 | 0.00 | 0.00 | 95 | 1009.9 |